Simultaneous Nadir Overpasses (SNOs) Predictions

Prediction of SNOs between GOES-16 and AQUA Satellite Orbit:

Table of predicted SNOs for the next 14.0 days since TLE Epoch: 4/22/2023
Index Date Time (GOES-16) GOES-16 Lat,Lon AQUA Lat,Lon Distance(km) Time Diff (sec)
1 04/23/2023 18:38:59 0.03, -75.20 0.45, -73.30 216.01 80
2 04/24/2023 07:02:28 -0.03, -75.20 0.65, -78.34 356.78 80
3 04/26/2023 06:45:56 -0.03, -75.21 -0.10, -74.96 28.80 80
4 04/28/2023 06:32:02 -0.02, -75.22 -0.78, -71.57 415.30 80
5 04/28/2023 18:55:40 0.02, -75.22 -0.27, -76.65 162.21 80
6 04/30/2023 18:39:05 0.02, -75.24 0.41, -73.25 225.81 80
7 05/01/2023 07:02:34 -0.01, -75.25 0.66, -78.29 346.11 80
8 05/03/2023 06:45:59 -0.01, -75.28 -0.08, -74.90 43.01 80
9 05/05/2023 06:32:03 -0.01, -75.31 -0.82, -71.50 432.75 80
10 05/05/2023 18:55:40 0.01, -75.31 -0.24, -76.58 144.01 80
